Temperature
17 16 15 15 15 15 15 14 15 15 15 15 15 15 16 16 16 17 17 17 18 18 18 18 18 18 18 18 18 18 18 18 18 18 19 19 19 19 19 19 19 19 19
16 15 15 14 14 14 14 14 14 14 14 14 14 14 15 15 16 16 16 17 17 17 17 17 18 18 18 18 18 18 17 18 18 18 18 18 18 19 19 19 19 19 19
15 15 14 14 13 13 13 13 13 13 14 14 14 14 14 15 15 15 16 16 16 17 17 17 17 17 17 17 18 17 17 17 17 17 17 18 18 18 18 18 18 18 19
15 14 14 13 13 13 13 13 13 13 13 13 14 14 14 14 14 15 15 15 16 16 17 17 17 17 17 17 17 17 17 17 17 17 17 17 17 18 18 18 18 18 18
14 14 13 13 13 13 13 13 13 13 13 13 13 13 14 14 14 14 15 15 15 16 16 16 16 17 17 17 17 17 17 17 17 17 17 17 17 17 17 18 18 18 18
14 14 13 13 13 13 13 12 12 13 13 13 13 13 13 13 14 14 14 15 15 15 16 16 16 16 17 17 17 17 17 17 17 16 16 17 16 17 17 17 17 17 17
14 14 13 13 13 13 13 12 12 12 12 12 13 13 13 13 13 14 14 14 15 15 15 15 16 16 16 16 16 16 16 16 16 16 16 16 16 17 16 16 16 16 17
15 14 14 13 13 13 13 12 12 12 12 12 12 13 13 13 13 13 13 14 14 14 15 15 15 15 16 16 16 16 16 16 16 16 16 16 16 16 16 16 16 16 16
15 14 14 14 13 13 13 12 12 12 12 12 12 12 12 12 13 13 13 13 14 14 14 14 15 15 15 15 15 15 15 16 16 16 16 16 16 16 16 15 15 15 15
15 15 14 14 14 13 13 13 12 12 12 12 12 12 12 12 12 13 13 13 13 13 14 14 14 14 14 14 15 15 15 15 15 15 15 15 15 15 15 15 15 15 15
16 15 15 14 14 14 13 13 12 12 12 12 12 12 12 12 12 12 12 12 13 13 13 13 14 14 14 14 14 14 14 15 15 15 15 15 15 15 15 15 15 15 15
16 16 15 15 14 14 13 13 12 12 12 12 12 12 11 11 12 12 12 12 12 12 13 13 13 13 13 14 14 14 14 14 14 14 14 14 15 14 14 14 14 14 14
16 16 15 15 14 14 13 13 12 12 12 12 11 11 11 11 11 11 11 12 12 12 12 12 13 13 13 13 13 13 13 14 14 14 14 14 14 14 14 14 14 14 14
17 16 16 15 15 14 14 13 13 12 12 12 11 11 11 11 11 11 11 11 11 12 12 12 12 12 12 13 13 13 13 13 13 13 14 14 14 14 14 14 14 14 14
17 17 16 16 15 15 14 13 13 12 12 12 11 11 11 11 11 11 11 11 11 11 11 11 12 12 12 12 12 13 13 13 13 13 13 13 13 13 13 13 14 14 14
17 17 16 16 15 15 14 14 13 13 12 12 11 11 11 11 11 11 11 11 11 11 11 11 11 11 12 12 12 12 12 12 12 13 13 13 13 13 13 13 13 13 14
17 16 16 16 16 15 15 14 13 13 12 12 11 11 11 11 10 10 10 10 10 10 10 10 11 11 11 11 12 12 12 12 12 12 12 12 13 13 13 13 13 13 13
17 16 16 16 16 15 15 14 14 13 12 12 11 11 11 10 10 10 10 10 10 10 10 10 10 10 10 11 11 11 11 11 12 12 12 12 12 13 13 13 13 13 14
17 16 16 16 16 15 15 15 14 13 12 12 11 11 11 10 10 10 10 10 9 9 9 9 9 10 10 10 11 11 11 11 11 11 12 12 12 12 13 13 13 13 13
16 16 16 16 15 15 15 15 14 13 12 12 11 11 11 11 10 10 10 10 9 9 9 9 9 9 10 10 10 10 11 11 11 11 11 12 12 12 13 13 13 13 13
16 16 16 15 15 15 15 14 14 13 12 12 11 11 11 11 10 10 10 10 9 9 9 9 9 9 9 9 10 10 10 10 11 11 11 12 12 12 12 13 13 13 13
16 16 16 15 15 15 14 14 14 13 12 12 11 11 11 11 10 10 10 10 10 9 9 9 9 9 9 9 9 10 10 10 11 11 11 11 12 12 12 13 13 13 13
16 16 16 15 15 15 15 14 14 13 12 12 12 11 11 11 11 10 10 10 10 10 9 9 9 9 9 9 9 10 10 10 10 11 11 11 12 12 12 12 13 13 13
17 16 16 16 16 15 15 14 14 13 13 12 12 12 11 11 11 11 10 10 10 10 10 9 9 9 9 10 10 10 10 10 10 10 11 11 11 12 12 12 12 12 12
17 16 16 16 16 15 15 14 14 14 13 13 13 12 12 11 11 11 11 10 10 10 10 10 10 10 10 10 10 10 10 10 10 10 11 11 11 12 12 12 12 12 12
17 17 16 16 16 16 15 15 14 14 14 14 14 13 12 12 12 11 11 11 10 10 10 10 10 10 10 10 10 10 10 10 10 10 10 11 11 11 12 12 12 12 12
Wind_Speed
13 12 12 12 11 11 11 10 9 8 6 4 5 5 5 5 5 4 6 7 7 8 6 6 7 6 5 5 4 3 4 3 2 2 1 1 3 4 5 4 3 5 9
13 12 12 12 13 12 11 11 10 9 8 6 5 5 6 6 6 5 4 6 7 8 7 8 7 7 6 7 6 5 4 3 3 2 2 1 2 3 4 4 3 3 5
13 13 13 13 12 12 12 11 10 10 9 9 6 6 5 5 5 5 5 5 6 6 6 7 7 8 8 8 8 8 8 5 3 2 3 4 4 2 2 4 4 3 2
11 11 12 12 12 12 12 12 11 11 10 9 7 8 6 6 6 6 5 6 5 4 5 6 7 7 7 7 8 9 7 7 5 3 2 2 3 3 2 2 2 4 4
10 10 11 10 11 11 10 10 10 10 10 10 9 7 7 6 6 6 6 5 4 4 4 5 6 6 6 7 8 8 9 8 7 5 3 2 1 1 2 2 1 1 1
9 9 10 9 9 9 9 9 10 10 10 10 10 9 9 9 8 7 5 4 3 3 2 3 4 5 5 7 8 8 10 9 9 7 5 5 4 4 3 3 2 1 1
8 8 9 9 8 8 9 9 9 9 10 10 9 10 10 9 8 7 5 5 3 3 3 2 1 2 4 5 6 7 8 9 9 9 7 7 6 4 5 4 3 2 1
6 7 7 7 6 7 7 8 8 8 9 9 8 9 9 7 7 7 6 5 4 3 3 2 1 0 1 2 4 6 7 8 8 10 9 6 6 5 5 5 5 3 2
5 6 6 6 6 6 6 6 7 7 8 8 8 8 8 8 9 9 8 5 5 4 5 4 3 3 2 1 0 2 4 5 7 7 8 7 6 6 5 5 5 6 5
6 6 5 5 5 5 4 5 6 7 7 7 7 7 8 8 7 8 9 8 7 6 5 5 4 4 3 3 3 2 1 2 3 4 5 5 5 5 5 5 5 4 4
6 5 4 5 4 5 5 5 6 6 7 7 7 7 7 8 8 8 8 7 7 8 8 7 6 6 5 4 3 2 3 2 2 3 4 5 5 5 5 5 5 4 4
4 4 4 4 5 5 5 5 6 6 6 6 7 6 7 8 9 9 9 9 9 8 8 8 8 8 8 7 5 4 4 3 3 2 4 4 4 5 5 5 5 4 4
3 3 3 3 3 4 4 5 6 6 5 6 7 7 7 8 8 9 9 9 9 8 8 8 9 9 9 8 7 6 4 3 3 3 3 4 5 5 4 5 5 4 4
4 4 3 3 2 2 4 5 5 5 5 5 6 7 7 8 8 8 9 9 9 9 9 9 9 9 9 10 9 7 5 5 4 4 4 4 4 4 5 5 5 4 4
4 5 4 4 3 2 3 4 4 4 5 6 7 7 7 7 7 8 8 8 9 10 9 9 9 9 9 10 10 8 5 4 4 4 4 4 5 5 4 4 4 5 4
5 5 5 5 4 3 4 4 4 4 5 6 6 6 7 7 8 8 8 8 8 9 9 9 8 9 9 13 14 10 5 3 4 4 4 3 4 5 6 7 6 5 5
4 5 5 5 4 4 4 4 3 4 5 6 6 6 7 7 7 8 8 8 7 7 8 8 8 7 10 15 15 14 5 3 3 3 3 3 4 4 4 5 6 6 4
3 4 5 4 4 5 4 2 3 5 6 6 5 6 6 7 6 6 7 7 6 6 6 7 7 6 10 16 16 15 5 3 4 4 4 4 4 5 5 3 6 7 6
2 3 4 5 5 6 5 4 4 6 6 5 5 6 6 6 6 6 6 5 5 5 5 5 6 7 8 15 15 14 4 3 4 4 5 5 5 7 6 5 8 8 7
2 3 4 4 5 5 4 3 4 6 6 5 6 6 5 5 6 6 5 5 4 5 4 4 5 6 6 12 15 13 5 4 3 4 5 8 7 7 6 4 7 8 7
2 1 3 2 3 4 4 4 6 6 6 5 5 5 5 4 4 5 5 5 5 5 5 4 5 5 7 10 14 13 6 5 3 4 4 4 7 7 5 3 4 7 7
4 2 2 1 1 2 4 3 5 4 4 3 3 3 4 4 4 3 3 4 5 5 5 5 5 5 6 8 11 12 9 7 4 4 4 4 6 6 6 5 6 8 7
5 4 2 2 2 2 2 3 3 3 3 3 1 0 1 2 3 4 5 5 5 5 5 5 5 4 5 8 14 13 10 9 5 4 5 5 6 6 5 6 6 6 5
5 5 4 5 2 3 2 0 1 2 3 3 2 2 0 2 3 3 4 4 5 5 6 6 6 5 5 7 8 8 6 6 5 3 4 6 7 6 5 4 5 5 6
6 5 5 3 2 2 3 3 1 3 4 4 5 4 2 2 1 2 2 3 3 3 2 4 5 5 5 7 9 6 5 5 4 3 2 2 3 3 4 4 4 5 5
7 7 6 4 5 4 3 4 3 3 5 3 2 2 2 2 1 2 2 2 2 3 2 2 3 2 4 7 9 9 10 9 8 4 3 3 3 4 4 4 4 4 5
Wind_Direction
1 8 358 354 347 346 346 337 334 338 335 330 316 312 306 296 280 259 252 242 231 231 228 222 211 202 197 200 206 216 223 220 224 216 244 239 203 196 188 201 194 183 170
356 1 359 358 353 351 345 338 344 338 335 331 317 305 300 293 284 277 271 257 236 221 224 221 213 203 193 194 197 201 206 208 203 170 166 253 283 257 196 182 198 218 173
359 0 359 357 357 356 350 348 347 342 341 335 326 319 309 301 299 297 280 265 252 228 212 218 214 206 197 198 196 198 200 199 209 181 163 170 209 239 271 202 184 209 205
3 1 360 360 1 359 355 353 354 353 349 343 338 330 318 308 301 300 289 283 268 246 216 214 216 205 200 199 198 197 191 184 199 209 195 176 149 160 231 273 206 201 202
6 4 3 0 2 1 358 357 356 357 352 348 343 338 328 313 305 307 300 294 288 268 231 215 212 210 202 200 202 195 189 192 191 188 182 183 167 169 162 222 264 288 233
8 6 4 4 6 5 1 1 360 359 355 354 353 351 345 336 334 330 323 316 311 303 296 249 223 213 210 206 206 201 195 197 194 188 183 176 175 186 173 192 189 216 284
9 4 3 1 359 1 1 359 359 358 357 358 358 355 353 345 342 339 335 340 340 330 322 300 249 227 223 218 214 203 201 202 196 194 195 193 193 172 173 178 182 195 251
9 5 3 356 355 2 1 357 357 359 360 357 359 1 360 355 351 350 353 358 349 340 347 350 336 275 256 241 223 208 205 203 203 205 199 194 193 183 180 178 173 182 206
8 5 1 356 358 4 2 354 358 2 1 358 358 1 1 4 4 5 3 3 1 357 7 17 34 47 40 29 326 204 201 192 198 203 198 195 191 187 188 182 175 173 189
4 0 357 358 358 0 1 2 7 11 6 3 8 12 5 6 8 8 7 4 3 3 10 17 37 46 44 46 51 60 114 169 177 183 187 189 178 172 177 180 177 175 172
354 354 358 359 7 4 12 17 12 19 8 6 6 12 9 7 11 12 7 6 8 12 20 23 29 33 34 36 47 47 63 80 133 152 162 174 168 165 166 163 164 174 172
343 357 7 7 17 9 13 28 18 18 15 5 4 12 17 18 19 15 10 14 16 20 26 26 31 32 28 24 27 36 50 60 76 109 133 137 141 144 149 155 163 165 167
351 15 8 15 24 16 20 30 24 13 20 17 13 13 23 21 22 17 14 16 18 22 28 32 33 32 29 22 20 27 44 61 71 81 102 123 133 139 145 150 150 152 160
357 15 11 33 29 42 43 35 23 11 21 27 21 17 24 22 21 18 16 19 19 23 22 32 34 31 32 22 14 11 32 50 61 73 84 98 120 135 144 147 150 149 147
7 14 18 30 5 56 68 56 28 17 25 33 31 21 26 23 19 23 23 23 22 26 23 30 34 30 29 18 12 4 17 45 58 61 66 87 101 113 124 132 141 148 147
14 9 12 27 358 44 67 64 38 29 38 43 37 28 31 25 20 23 21 24 31 25 22 26 32 34 25 11 13 9 4 34 62 63 54 80 103 111 112 109 112 130 151
15 9 5 15 347 42 65 77 52 49 49 49 44 33 35 32 27 24 19 20 31 27 23 23 25 33 23 14 10 3 354 31 64 65 62 55 69 80 96 116 111 90 92
25 13 358 351 7 40 38 87 101 72 58 46 49 48 41 31 26 25 24 21 20 22 22 22 20 23 25 16 10 359 359 50 70 66 58 48 58 54 51 107 107 82 55
37 15 353 350 27 34 13 20 76 80 67 44 40 50 45 32 22 20 20 21 14 13 23 24 24 25 22 17 12 4 352 49 70 77 73 57 60 44 52 100 113 103 82
64 10 338 4 26 18 356 1 63 76 69 51 41 45 49 41 29 13 11 13 16 9 15 24 31 34 28 23 18 12 5 26 50 59 71 59 51 42 47 107 125 122 118
133 294 310 35 29 356 346 23 58 67 72 62 45 37 34 51 57 15 7 17 8 0 10 24 32 40 40 25 21 18 19 10 35 54 57 49 43 43 39 73 120 130 130
169 213 301 11 51 358 351 40 77 81 93 90 62 51 46 30 40 18 10 17 3 6 14 18 24 31 38 29 15 16 24 23 44 51 50 50 45 52 62 69 100 115 114
175 181 224 278 261 114 44 19 91 110 134 135 113 40 101 102 45 17 18 19 16 11 8 13 16 22 32 19 13 10 21 33 46 54 59 62 61 62 69 69 85 101 106
187 179 211 235 231 124 134 13 106 194 205 181 183 230 332 74 76 55 30 35 25 13 5 8 8 13 30 18 4 355 5 24 41 53 62 60 64 73 78 74 77 84 99
184 186 218 229 245 204 186 166 191 260 246 209 191 198 146 100 60 101 67 59 82 74 26 3 359 10 10 358 353 357 2 3 10 10 58 65 64 68 71 74 80 89 97
189 191 198 202 240 235 194 165 171 258 276 268 179 151 154 156 184 165 141 64 110 148 110 42 14 43 23 350 358 2 5 8 11 44 72 72 74 78 85 90 87 88 102
Height
1551 1548 1546 1543 1539 1537 1534 1531 1529 1527 1524 1522 1520 1518 1516 1515 1514 1514 1514 1515 1515 1517 1519 1520 1522 1524 1526 1528 1532 1534 1537 1540 1543 1546 1548 1550 1552 1554 1556 1558 1559 1560 1561
1551 1548 1545 1542 1538 1535 1532 1529 1526 1524 1522 1519 1517 1515 1513 1511 1511 1510 1509 1510 1510 1511 1513 1515 1516 1518 1520 1523 1526 1529 1532 1535 1539 1542 1544 1546 1549 1550 1552 1554 1556 1558 1559
1551 1548 1545 1541 1537 1534 1530 1527 1524 1521 1519 1516 1514 1512 1510 1508 1507 1506 1505 1505 1505 1507 1507 1509 1510 1512 1515 1517 1520 1523 1527 1530 1533 1537 1540 1542 1544 1546 1548 1550 1552 1554 1556
1551 1548 1545 1541 1537 1533 1529 1526 1522 1519 1516 1514 1511 1509 1507 1505 1503 1502 1501 1501 1501 1502 1503 1504 1505 1507 1509 1511 1514 1517 1520 1524 1527 1531 1534 1538 1539 1542 1544 1546 1548 1550 1553
1552 1549 1545 1541 1537 1533 1529 1525 1522 1518 1515 1512 1509 1507 1505 1502 1501 1499 1498 1498 1497 1498 1498 1499 1500 1502 1504 1506 1509 1511 1514 1517 1521 1524 1528 1532 1535 1537 1539 1541 1544 1546 1548
1552 1549 1545 1541 1537 1533 1529 1525 1521 1518 1515 1512 1508 1506 1503 1500 1498 1496 1495 1494 1494 1494 1494 1495 1496 1497 1499 1501 1503 1505 1508 1511 1515 1518 1522 1525 1528 1531 1534 1537 1539 1541 1543
1552 1549 1545 1541 1538 1534 1530 1526 1522 1519 1515 1512 1508 1505 1502 1499 1497 1495 1493 1492 1492 1492 1491 1491 1492 1493 1495 1496 1498 1501 1502 1505 1509 1512 1515 1519 1522 1526 1529 1532 1535 1538 1540
1552 1549 1546 1542 1538 1535 1530 1527 1523 1520 1516 1512 1509 1505 1502 1499 1497 1495 1493 1492 1491 1490 1489 1489 1490 1490 1491 1493 1494 1496 1498 1500 1503 1507 1510 1513 1516 1519 1523 1526 1530 1533 1536
1551 1549 1546 1543 1539 1535 1532 1528 1524 1521 1517 1514 1510 1507 1503 1501 1498 1496 1494 1492 1491 1490 1490 1489 1489 1489 1489 1490 1491 1492 1494 1496 1499 1502 1505 1508 1511 1514 1517 1521 1524 1528 1530
1551 1549 1546 1543 1540 1536 1533 1529 1526 1523 1519 1516 1512 1509 1506 1503 1500 1497 1495 1493 1492 1491 1490 1489 1489 1489 1489 1489 1489 1489 1491 1494 1496 1499 1501 1504 1507 1509 1513 1516 1519 1522 1526
1551 1548 1546 1543 1540 1537 1534 1531 1528 1524 1521 1518 1515 1511 1508 1505 1502 1500 1497 1496 1494 1493 1492 1491 1490 1490 1489 1489 1489 1490 1491 1492 1494 1496 1498 1501 1503 1506 1509 1512 1515 1518 1522
1550 1548 1545 1543 1540 1538 1535 1532 1529 1526 1523 1520 1517 1514 1511 1507 1505 1502 1500 1498 1496 1494 1493 1492 1491 1491 1490 1490 1490 1490 1491 1492 1494 1495 1497 1499 1501 1504 1507 1509 1512 1515 1518
1549 1547 1545 1543 1540 1538 1536 1533 1530 1527 1524 1521 1518 1516 1513 1510 1507 1505 1502 1500 1498 1497 1495 1494 1493 1492 1491 1491 1491 1491 1492 1493 1494 1495 1497 1498 1500 1503 1505 1508 1510 1513 1516
1548 1547 1545 1542 1540 1538 1536 1534 1531 1528 1526 1523 1520 1517 1515 1512 1510 1507 1505 1502 1500 1498 1497 1495 1494 1493 1493 1492 1492 1492 1493 1493 1494 1495 1496 1498 1500 1502 1504 1507 1509 1512 1514
1548 1546 1544 1543 1540 1538 1536 1534 1532 1530 1527 1524 1521 1519 1517 1514 1512 1509 1507 1504 1502 1500 1499 1497 1496 1494 1493 1493 1493 1493 1493 1494 1494 1495 1496 1498 1499 1501 1503 1506 1508 1511 1513
1547 1546 1544 1543 1540 1538 1537 1535 1533 1531 1528 1526 1523 1521 1518 1516 1513 1511 1509 1507 1504 1502 1500 1499 1497 1496 1494 1494 1493 1493 1493 1494 1495 1495 1496 1497 1499 1501 1503 1506 1508 1510 1513
1547 1546 1544 1543 1541 1539 1537 1535 1533 1531 1529 1527 1524 1522 1520 1517 1515 1513 1510 1508 1506 1504 1502 1500 1499 1497 1496 1495 1494 1494 1494 1494 1495 1495 1496 1498 1499 1500 1502 1505 1507 1510 1512
1546 1545 1544 1543 1541 1539 1537 1535 1533 1532 1530 1528 1526 1524 1521 1519 1517 1514 1512 1510 1508 1506 1504 1502 1500 1498 1497 1495 1494 1494 1495 1495 1495 1496 1496 1497 1499 1500 1502 1505 1507 1509 1512
1545 1545 1544 1543 1541 1539 1538 1536 1535 1532 1531 1529 1527 1525 1523 1521 1518 1516 1514 1512 1510 1508 1506 1504 1502 1500 1498 1496 1495 1495 1495 1496 1496 1496 1497 1498 1499 1501 1503 1505 1507 1510 1513
1544 1544 1543 1542 1541 1539 1538 1537 1535 1533 1531 1530 1529 1527 1524 1522 1520 1518 1516 1514 1512 1510 1508 1506 1504 1502 1500 1498 1496 1496 1496 1496 1497 1497 1498 1499 1500 1502 1504 1506 1508 1511 1514
1542 1542 1542 1542 1540 1539 1538 1537 1535 1533 1532 1531 1529 1528 1526 1524 1521 1519 1518 1516 1514 1512 1510 1508 1506 1504 1501 1499 1498 1497 1497 1497 1497 1498 1499 1500 1501 1503 1505 1508 1510 1513 1515
1541 1541 1541 1541 1540 1539 1538 1537 1535 1534 1532 1531 1530 1529 1527 1525 1523 1521 1519 1517 1515 1514 1512 1510 1508 1506 1503 1501 1500 1499 1498 1498 1498 1499 1500 1502 1503 1505 1507 1509 1512 1515 1517
1540 1540 1540 1540 1539 1538 1537 1536 1535 1534 1533 1532 1531 1530 1528 1527 1525 1523 1521 1519 1517 1515 1513 1511 1509 1507 1505 1503 1502 1501 1500 1500 1500 1501 1502 1504 1505 1507 1509 1512 1514 1517 1520
1538 1538 1538 1538 1538 1537 1536 1535 1534 1533 1533 1532 1531 1530 1529 1528 1526 1524 1522 1520 1518 1516 1514 1512 1511 1509 1507 1505 1504 1503 1502 1502 1503 1503 1505 1506 1508 1510 1512 1514 1517 1519 1522
1536 1536 1537 1537 1537 1536 1535 1534 1533 1533 1532 1532 1531 1530 1529 1528 1527 1525 1524 1522 1520 1517 1515 1514 1512 1510 1508 1507 1506 1505 1505 1505 1505 1506 1507 1509 1511 1512 1514 1516 1519 1521 1524
1533 1533 1534 1534 1534 1535 1534 1533 1532 1531 1531 1531 1531 1530 1529 1528 1527 1526 1524 1523 1521 1519 1517 1515 1513 1512 1511 1509 1509 1508 1508 1508 1509 1509 1510 1511 1513 1515 1517 1519 1521 1523 1525